Weather History for Lincoln, NE

Change the Weather History Date:

Monday, February 24, 2014

  Actual Average Record
Temperature  
Mean Temperature 24 °F 32 °F  
Max Temperature 27 °F 43 °F 72 °F (1981)
Min Temperature 20 °F 21 °F -9 °F (1965)
Degree Days  
Heating Degree Days 41 33  
Month to date heating degree days 1002 878  
Since 1 July heating degree days 4937 4575  
Cooling Degree Days 0 0  
Month to date cooling degree days 0 0  
Year to date cooling degree days 0 0  
Moisture  
Dew Point 17 °F    
Average Humidity 72    
Maximum Humidity 84    
Minimum Humidity 60    
Precipitation  
Precipitation 0.03 in 0.03 in 0.82 in (2007)
Month to date precipitation 0.61 0.64  
Year to date precipitation 0.85 1.28  
Snow  
Snow 0.80 in 0.20 in - ()
Month to date snowfall 7.2 4.9  
Since 1 July snowfall 16.8 19.0  
Snow Depth 1.00 in    
Sea Level Pressure  
Sea Level Pressure 30.33 in    
Wind  
Wind Speed 7 mph (ENE)    
Max Wind Speed 14 mph    
Max Gust Speed 19 mph    
Visibility 8 miles    
Events Snow    
T = Trace of Precipitation, MM = Missing Value Source: NWS Daily Summary

Daily Weather History Graph

Daily Weather History Graph

Search for Another Location

Airport:

Trip Planner

Search our weather history database for the weather conditions in past years. The results will help you decide how hot, cold, wet, or windy it might be!

Date:

Astronomy

Feb. 24, 2014 Rise Set
Actual Time 7:08 AM CST 6:12 PM CST
Civil Twilight 6:40 AM CST 6:40 PM CST
Nautical Twilight 6:09 AM CST 7:12 PM CST
Astronomical Twilight 5:37 AM CST 7:43 PM CST
Moon 3:09 AM CST (2/24) 1:13 PM CST (2/24)
Length of Visible Light 11h 59m
Length of Day
11h 03m
Waning Crescent, 28% of the Moon is Illuminated
Feb 24
Waning Crescent
Mar 1
New
Mar 8
First Quarter
Mar 16
Full
Mar 23
Last Quarter

Hourly Weather History & Observations

Time (CST) Temp. Windchill Dew Point Humidity Pressure Visibility Wind Dir Wind Speed Gust Speed Precip Events Conditions
12:54 AM 24.1 °F 18.2 °F 12.9 °F 62% 30.41 in 10.0 mi NNE 4.6 mph - N/A   Overcast
1:54 AM 25.0 °F 20.7 °F 14.0 °F 63% 30.42 in 10.0 mi North 3.5 mph - N/A   Overcast
2:54 AM 24.1 °F 17.0 °F 12.9 °F 62% 30.40 in 4.0 mi North 5.8 mph - 0.00 in Snow Light Snow
3:00 AM 24.1 °F 16.0 °F 14.0 °F 65% 30.36 in 1.8 mi NNE 6.9 mph - 0.00 in Snow Light Snow
3:10 AM 23.0 °F 14.7 °F 16.0 °F 74% 30.36 in 1.2 mi NNE 6.9 mph - 0.01 in Snow Light Snow
3:20 AM 21.9 °F 13.4 °F 17.1 °F 82% 30.36 in 1.2 mi NE 6.9 mph - 0.01 in Snow Light Snow
3:31 AM 21.9 °F 13.4 °F 19.0 °F 89% 30.35 in 0.8 mi NNE 6.9 mph - 0.02 in Snow Light Snow
3:36 AM 21.0 °F 14.6 °F 18.0 °F 88% 30.35 in 1.0 mi NE 4.6 mph - 0.02 in Snow Light Snow
3:52 AM 21.2 °F 13.6 °F 17.6 °F 86% 30.34 in 1.8 mi NE 5.8 mph - 0.03 in Snow Light Snow
3:54 AM 21.0 °F 14.6 °F 18.0 °F 88% 30.40 in 2.0 mi NNE 4.6 mph - 0.03 in Snow Light Snow
4:11 AM 21.0 °F 14.6 °F 18.0 °F 88% 30.34 in 3.0 mi NE 4.6 mph - 0.00 in Snow Light Snow
4:54 AM 21.0 °F 13.4 °F 18.0 °F 88% 30.38 in 8.0 mi ENE 5.8 mph - 0.00 in   Overcast
5:54 AM 21.0 °F 13.4 °F 17.1 °F 85% 30.37 in 10.0 mi East 5.8 mph - N/A   Overcast
6:54 AM 21.0 °F 16.2 °F 17.1 °F 85% 30.38 in 10.0 mi ENE 3.5 mph - N/A   Overcast
7:54 AM 21.9 °F 15.7 °F 17.1 °F 82% 30.40 in 8.0 mi East 4.6 mph - N/A   Overcast
8:54 AM 21.9 °F 14.5 °F 17.1 °F 82% 30.41 in 6.0 mi ESE 5.8 mph - 0.00 in Snow Light Snow
9:54 AM 23.0 °F 13.9 °F 17.1 °F 78% 30.39 in 10.0 mi ESE 8.1 mph - 0.00 in   Overcast
10:54 AM 24.1 °F 15.2 °F 17.1 °F 75% 30.37 in 10.0 mi ESE 8.1 mph - N/A   Overcast
11:54 AM 25.0 °F 15.5 °F 17.1 °F 72% 30.35 in 10.0 mi ESE 9.2 mph - N/A   Overcast
12:54 PM 26.1 °F 16.8 °F 18.0 °F 71% 30.31 in 10.0 mi SE 9.2 mph - N/A   Overcast
1:54 PM 26.1 °F 15.0 °F 18.0 °F 71% 30.27 in 10.0 mi SE 12.7 mph - N/A   Overcast
2:25 PM 27.0 °F 16.7 °F 18.0 °F 69% 30.20 in 10.0 mi ESE 11.5 mph - N/A   Overcast
2:32 PM 26.1 °F 16.2 °F 18.0 °F 71% 30.21 in 10.0 mi ESE 10.4 mph - N/A   Overcast
2:54 PM 27.0 °F 18.0 °F 18.0 °F 69% 30.25 in 10.0 mi ESE 9.2 mph - N/A   Overcast
3:54 PM 27.0 °F 18.0 °F 18.0 °F 69% 30.25 in 10.0 mi East 9.2 mph - N/A   Overcast
4:54 PM 27.0 °F 17.3 °F 17.1 °F 66% 30.25 in 10.0 mi East 10.4 mph - N/A   Overcast
5:26 PM 26.1 °F 18.4 °F 17.1 °F 69% 30.22 in 10.0 mi ENE 6.9 mph - N/A   Overcast
5:54 PM 26.1 °F 16.8 °F 17.1 °F 69% 30.28 in 8.0 mi ENE 9.2 mph - N/A   Overcast
6:54 PM 25.0 °F 18.1 °F 18.0 °F 75% 30.31 in 10.0 mi East 5.8 mph - N/A   Overcast
7:54 PM 25.0 °F 18.1 °F 17.1 °F 72% 30.29 in 10.0 mi ESE 5.8 mph - N/A   Scattered Clouds
8:54 PM 25.0 °F 20.7 °F 17.1 °F 72% 30.31 in 10.0 mi East 3.5 mph - N/A   Overcast
9:54 PM 24.1 °F - 17.1 °F 75% 30.34 in 10.0 mi Calm Calm - N/A   Scattered Clouds
10:54 PM 21.9 °F 15.7 °F 18.0 °F 85% 30.35 in 10.0 mi NNW 4.6 mph - N/A   Clear
11:54 PM 21.9 °F 13.4 °F 19.0 °F 89% 30.35 in 10.0 mi North 6.9 mph - N/A   Overcast